SCP
0 0 0 0 0 0 0 0 0 0 0 0 0 0 0 0 0 0 0 0 0 0 0 0 0 0 0 0 0 0 0 0
0 0 0 0 0 0 0 0 0 0 0 0 0 0 0 0 0 0 0 0 0 0 0 0 0 0 0 0 0 0 0 0
0 0 0 0 0 0 0 0 0 0 0 0 0 0 0 0 0 0 0 0 0 0 0 0 0 0 0 0 0 0 0 0
0 0 0 0 0 0 0 0 0 0 0 0 0 0 0 0 0 0 0 0 0 0 0 0 0 0 0 0 0 0 0 0
0 0 0 0 0 0 0 0 0 0 0 0 0 0 0 0 0 0 0 0 0 0 0 0 0 0 0 0 0 0 0 0
0 0 0 0 0 0 0 0 0 0 0 0 0 0 0 0 0 0 0 0 0 0 0 0 0 0 0 0 0 0 0 0
0 0 0 0 0 0 0 0 0 0 0 0 0 0 0 0 0 0 0 0 0 0 0 0 0 0 0 0 0 0 0 0
0 0 0 0 0 0 0 0 0 0 0 0 0 0 0 0 0 0 0 0 0 0 0 0 0 0 0 0 0 0 0 0
0 0 0 0 0 0 0 0 0 0 0 0 0 0 0 0 0 0 0 0 0 0 0 0 0 0 0 0 0 0 0 0
0 0 0 0 0 0 0 -0 0 0 0 0 0 0 0 0 0 0 0 0 0 0 0 0 0 0 0 0 0 0 0 0
0 0 0 0 0 0 0 0 0 0 0 0 0 0 0 0 0 0 0 0 0 0 0 0 0 0 0 0 0 0 0 0
-0 0 0 0 0 0 0 0 0 0 0 0 0 0 0 0 0 0 0 0 0 0 0 0 0 0 0 0 0 0 0 0
0 0 0 0 0 0 0 0 0 0 0 0 0 0 0 0 0 0 0 0 0 0 0 0 0 0 0 0 0 0 0 0
0 0 0 0 0 0 0 0 0 0 0 0 0 0 0 0 0 0 0 0 0 0 0 0 0 0 0 0 0 0 0 0
-0 0 0 0 -0 -0 0 0 0 0 0 0 0 0 0 0 0 0 0 0 0 0 0 0 0 0 0 0 0 0 0 0
-0 -0 0 0 0 -0 -0 -0 -0 -0 0 0 0 0 0 0 0 0 0 0 0 0 0 0 0 0 0 0 0 0 0 0
0 0 0 0 0 0 -0 -0 -0 -0 -0 0 0 0 0 0 0 0 0 0 0 0 0 0 0 0 0 0 0 0 0 0
0 0 0 -0 -0 -0 -0 -0 -0 -0 -0 -0 0 0 0 0 0 0 0 0 0 0 0 0 0 0 0 0 0 0 0 0
0 0 0 0 0 0 -0 -0 -0 -0 -0 -0 -0 0 0 0 0 0 0 0 0 0 0 0 0 0 0 0 0 0 0 0
0 0 0 0 0 0 0 -0 -0 -0 -0 -0 -0 0 0 0 0 0 0 0 0 0 0 0 0 0 0 0 0 0 0 0
Wind_Speed_500mb
80 86 93 95 86 91 94 96 105 109 109 104 101 99 99 95 91 89 86 77 71 70 70 66 67 66 66 63 57 55 58 55
66 78 84 86 84 89 91 95 96 106 107 103 102 100 100 94 89 86 84 79 77 77 73 70 68 71 73 68 59 56 55 52
40 51 63 74 76 80 83 91 93 92 101 100 98 99 97 93 84 81 80 78 78 79 76 72 70 71 78 73 55 61 62 49
9 7 36 49 62 70 72 79 87 92 91 90 93 99 93 86 78 75 77 82 84 80 77 80 71 75 81 75 59 63 57 51
52 34 10 16 40 52 61 66 71 78 81 85 91 89 81 73 73 88 86 71 81 86 86 90 86 79 82 65 69 56 53 54
53 45 38 27 12 12 32 44 54 62 66 72 76 81 78 83 77 82 87 85 92 89 99 97 105 71 69 72 55 60 61 50
51 49 41 40 29 15 4 18 33 41 50 56 59 61 65 70 76 83 93 99 98 106 88 85 79 51 62 52 55 56 54 56
44 46 42 31 19 23 17 9 8 14 29 44 51 56 60 64 71 74 76 78 70 65 56 46 59 51 50 63 56 58 52 54
42 36 32 28 18 12 18 21 21 13 16 27 33 35 36 37 40 41 47 52 58 56 53 52 45 50 46 51 49 51 52 53
35 33 30 23 23 20 11 8 9 14 23 26 25 28 31 35 38 39 41 42 46 48 49 46 47 51 48 52 53 56 54 52
44 41 40 41 33 21 10 6 13 18 17 19 23 27 31 33 38 40 42 44 49 50 48 47 46 45 44 53 53 55 56 55
45 48 47 44 41 36 31 26 23 21 24 26 29 29 32 34 37 41 47 49 46 45 43 42 42 47 50 47 50 52 52 53
45 46 46 46 47 46 43 39 35 30 24 26 33 32 35 37 36 36 33 30 30 34 40 42 43 45 46 46 45 46 49 49
42 41 43 48 52 52 52 52 50 41 35 32 27 34 40 43 44 48 47 43 41 50 46 40 36 39 38 45 46 46 47 46
35 36 40 45 49 53 56 57 58 54 48 39 39 36 41 46 54 51 53 53 48 51 57 55 42 43 46 50 53 53 49 50
33 36 40 45 49 54 59 62 63 61 54 46 36 38 45 48 49 54 55 50 44 46 48 43 43 48 50 55 56 49 50 49
26 30 37 44 51 54 60 66 69 67 61 53 45 36 38 48 48 53 55 53 42 43 43 42 43 45 48 49 47 47 45 52
26 30 33 39 46 52 58 63 66 67 64 56 49 42 35 37 41 46 51 55 53 49 48 48 44 46 41 43 46 49 47 42
21 26 31 39 45 50 53 56 56 56 57 51 43 39 30 28 31 37 43 45 47 46 43 43 39 41 40 38 40 37 32 32
19 25 26 28 31 35 41 47 51 52 52 53 42 37 29 22 27 30 34 35 33 29 20 21 22 24 27 30 27 29 27 30
Wind_Direction_500mb
236 237 237 238 237 234 233 233 231 230 232 232 234 237 240 242 243 245 247 246 245 245 247 248 247 245 244 247 243 234 240 238
241 241 239 237 233 232 231 232 231 233 234 234 235 238 242 244 246 248 251 251 250 248 249 250 246 244 243 243 240 236 239 237
227 230 232 234 234 234 234 233 234 236 236 237 239 239 243 245 249 252 253 254 252 250 249 250 248 246 245 242 243 239 233 233
79 209 224 230 235 238 239 238 239 235 237 239 241 242 242 246 248 252 253 257 253 249 247 247 247 243 245 238 240 238 226 229
55 58 92 210 224 229 237 240 243 242 241 241 242 244 243 243 242 251 253 253 259 254 246 246 242 240 242 238 237 227 223 222
49 46 51 61 65 229 237 244 243 242 243 246 247 249 247 243 244 241 242 244 253 251 248 242 238 242 241 242 231 225 223 218
42 47 48 43 39 31 26 232 235 239 243 247 254 256 256 255 256 254 251 251 252 247 244 242 240 252 244 229 229 223 225 221
25 26 36 51 32 19 26 2 282 248 240 240 244 248 251 252 252 252 251 253 258 260 262 247 232 245 234 233 222 225 221 222
21 26 27 25 27 28 0 342 327 318 291 268 265 263 255 250 249 249 252 255 249 245 239 237 238 234 233 225 222 223 222 220
31 29 22 7 12 16 354 266 251 282 281 275 266 263 262 261 262 259 253 249 243 245 253 245 236 229 220 219 218 222 222 221
32 33 29 29 26 23 6 302 261 252 240 261 273 266 260 255 248 247 248 248 252 248 239 230 227 228 222 224 225 223 221 220
31 28 27 25 20 14 8 352 331 303 272 246 222 235 249 248 243 244 244 242 240 238 235 235 228 230 234 228 227 227 226 224
32 30 26 22 19 15 10 3 349 335 309 279 266 244 232 237 234 241 234 225 233 241 234 230 226 226 226 225 228 227 226 225
23 22 21 17 13 9 7 359 354 347 331 311 278 257 251 244 242 234 228 230 245 249 252 243 240 238 234 229 224 223 221 221
14 14 15 15 12 8 3 359 354 345 337 325 305 276 256 244 245 237 243 239 236 249 241 248 244 240 236 233 224 218 214 217
1 6 8 10 11 8 3 358 352 346 338 327 313 292 268 255 249 248 241 236 240 246 247 247 243 241 237 230 225 219 215 221
357 1 3 6 6 3 359 359 356 351 342 333 320 303 282 268 258 247 241 240 234 237 236 233 232 231 230 227 223 221 215 220
353 356 0 5 4 3 1 360 357 353 347 339 328 311 297 277 263 256 246 238 230 224 227 226 227 229 221 217 215 214 217 221
339 347 353 360 358 358 359 358 356 356 352 345 341 323 307 291 274 263 251 242 235 233 228 225 222 220 220 214 215 210 212 222
343 345 345 343 347 354 360 360 360 356 0 359 356 345 323 306 286 266 247 235 221 212 196 193 195 196 201 207 211 207 204 208
Wind_Speed_850mb
80 86 93 95 86 91 94 96 105 109 109 104 101 99 99 95 91 89 86 77 71 70 70 66 67 66 66 63 57 55 58 55
66 78 84 86 84 89 91 95 96 106 107 103 102 100 100 94 89 86 84 79 77 77 73 70 68 71 73 68 59 56 55 52
40 51 63 74 76 80 83 91 93 92 101 100 98 99 97 93 84 81 80 78 78 79 76 72 70 71 78 73 55 61 62 49
9 7 36 49 62 70 72 79 87 92 91 90 93 99 93 86 78 75 77 82 84 80 77 80 71 75 81 75 59 63 57 51
52 34 10 16 40 52 61 66 71 78 81 85 91 89 81 73 73 88 86 71 81 86 86 90 86 79 82 65 69 56 53 54
53 45 38 27 12 12 32 44 54 62 66 72 76 81 78 83 77 82 87 85 92 89 99 97 105 71 69 72 55 60 61 50
51 49 41 40 29 15 4 18 33 41 50 56 59 61 65 70 76 83 93 99 98 106 88 85 79 51 62 52 55 56 54 56
44 46 42 31 19 23 17 9 8 14 29 44 51 56 60 64 71 74 76 78 70 65 56 46 59 51 50 63 56 58 52 54
42 36 32 28 18 12 18 21 21 13 16 27 33 35 36 37 40 41 47 52 58 56 53 52 45 50 46 51 49 51 52 53
35 33 30 23 23 20 11 8 9 14 23 26 25 28 31 35 38 39 41 42 46 48 49 46 47 51 48 52 53 56 54 52
44 41 40 41 33 21 10 6 13 18 17 19 23 27 31 33 38 40 42 44 49 50 48 47 46 45 44 53 53 55 56 55
45 48 47 44 41 36 31 26 23 21 24 26 29 29 32 34 37 41 47 49 46 45 43 42 42 47 50 47 50 52 52 53
45 46 46 46 47 46 43 39 35 30 24 26 33 32 35 37 36 36 33 30 30 34 40 42 43 45 46 46 45 46 49 49
42 41 43 48 52 52 52 52 50 41 35 32 27 34 40 43 44 48 47 43 41 50 46 40 36 39 38 45 46 46 47 46
35 36 40 45 49 53 56 57 58 54 48 39 39 36 41 46 54 51 53 53 48 51 57 55 42 43 46 50 53 53 49 50
33 36 40 45 49 54 59 62 63 61 54 46 36 38 45 48 49 54 55 50 44 46 48 43 43 48 50 55 56 49 50 49
26 30 37 44 51 54 60 66 69 67 61 53 45 36 38 48 48 53 55 53 42 43 43 42 43 45 48 49 47 47 45 52
26 30 33 39 46 52 58 63 66 67 64 56 49 42 35 37 41 46 51 55 53 49 48 48 44 46 41 43 46 49 47 42
21 26 31 39 45 50 53 56 56 56 57 51 43 39 30 28 31 37 43 45 47 46 43 43 39 41 40 38 40 37 32 32
19 25 26 28 31 35 41 47 51 52 52 53 42 37 29 22 27 30 34 35 33 29 20 21 22 24 27 30 27 29 27 30
Wind_Direction_850mb
236 237 237 238 237 234 233 233 231 230 232 232 234 237 240 242 243 245 247 246 245 245 247 248 247 245 244 247 243 234 240 238
241 241 239 237 233 232 231 232 231 233 234 234 235 238 242 244 246 248 251 251 250 248 249 250 246 244 243 243 240 236 239 237
227 230 232 234 234 234 234 233 234 236 236 237 239 239 243 245 249 252 253 254 252 250 249 250 248 246 245 242 243 239 233 233
79 209 224 230 235 238 239 238 239 235 237 239 241 242 242 246 248 252 253 257 253 249 247 247 247 243 245 238 240 238 226 229
55 58 92 210 224 229 237 240 243 242 241 241 242 244 243 243 242 251 253 253 259 254 246 246 242 240 242 238 237 227 223 222
49 46 51 61 65 229 237 244 243 242 243 246 247 249 247 243 244 241 242 244 253 251 248 242 238 242 241 242 231 225 223 218
42 47 48 43 39 31 26 232 235 239 243 247 254 256 256 255 256 254 251 251 252 247 244 242 240 252 244 229 229 223 225 221
25 26 36 51 32 19 26 2 282 248 240 240 244 248 251 252 252 252 251 253 258 260 262 247 232 245 234 233 222 225 221 222
21 26 27 25 27 28 0 342 327 318 291 268 265 263 255 250 249 249 252 255 249 245 239 237 238 234 233 225 222 223 222 220
31 29 22 7 12 16 354 266 251 282 281 275 266 263 262 261 262 259 253 249 243 245 253 245 236 229 220 219 218 222 222 221
32 33 29 29 26 23 6 302 261 252 240 261 273 266 260 255 248 247 248 248 252 248 239 230 227 228 222 224 225 223 221 220
31 28 27 25 20 14 8 352 331 303 272 246 222 235 249 248 243 244 244 242 240 238 235 235 228 230 234 228 227 227 226 224
32 30 26 22 19 15 10 3 349 335 309 279 266 244 232 237 234 241 234 225 233 241 234 230 226 226 226 225 228 227 226 225
23 22 21 17 13 9 7 359 354 347 331 311 278 257 251 244 242 234 228 230 245 249 252 243 240 238 234 229 224 223 221 221
14 14 15 15 12 8 3 359 354 345 337 325 305 276 256 244 245 237 243 239 236 249 241 248 244 240 236 233 224 218 214 217
1 6 8 10 11 8 3 358 352 346 338 327 313 292 268 255 249 248 241 236 240 246 247 247 243 241 237 230 225 219 215 221
357 1 3 6 6 3 359 359 356 351 342 333 320 303 282 268 258 247 241 240 234 237 236 233 232 231 230 227 223 221 215 220
353 356 0 5 4 3 1 360 357 353 347 339 328 311 297 277 263 256 246 238 230 224 227 226 227 229 221 217 215 214 217 221
339 347 353 360 358 358 359 358 356 356 352 345 341 323 307 291 274 263 251 242 235 233 228 225 222 220 220 214 215 210 212 222
343 345 345 343 347 354 360 360 360 356 0 359 356 345 323 306 286 266 247 235 221 212 196 193 195 196 201 207 211 207 204 208